{"data":{"norad_id":48066,"intl_designator":"2021-025AA","name":"ONEWEB-0151","alt_names":[],"object_type":"PAYLOAD","status":"ACTIVE","operator":null,"country":"UK","launch_date":"2021-03-25","launch_site_code":"VOSTO","launch_vehicle":null,"mission":null,"orbit_class":"UNKNOWN","rcs_meters":null,"size_class":null,"mass_kg":null,"dimensions":null,"purposes":["comms"],"wikipedia_slug":null,"has_3d_model":false,"image_url":null,"decayed_at":null,"tle_current":{"epoch":"2026-05-24T23:46:29.674272Z","epoch_age_seconds":73094,"freshness":"FRESH","line1":"1 48066U 21025AA  26144.99062123 -.00000244  00000+0 -70301-3 0  9998","line2":"2 48066  87.8940 324.8406 0001668  89.8587 270.2733 13.13468611250549","mean_motion":13.13468611,"eccentricity":0.0001668,"inclination_deg":87.894,"raan_deg":324.8406,"arg_perigee_deg":89.8587,"mean_anomaly_deg":270.2733,"bstar":-0.00070301,"rev_number":25054,"period_min":109.63337745115,"perigee_km":1208.5050863847,"apogee_km":1211.0364124099,"semimajor_km":7587.9077493973,"source":"CELESTRAK","updated_at":"2026-05-25T13:38:22.392739Z"}}}